Location: Archemont
(49.1579°N, 1.7598°E)
Time: 10:44:05
(UTC+00:00)

deb Explorer IX - Pass Details

Date: 17 April 2024
Orbit: 513 x 891 km, 38.7° (Epoch: 23 May)

Event Time Altitude Azimuth Distance (km) Brightness Sun altitude
Rises 13:23:53 0° 239° (WSW) 3,503 ? 47.2°
Reaches altitude 10° 13:26:46 10° 229° (SW) 2,575 ? 46.9°
Maximum altitude 13:32:01 29° 172° (S) 1,576 ? 46.4°
Drops below altitude 10° 13:37:10 10° 114° (ESE) 2,520 ? 45.9°
Sets 13:39:58 0° 104° (ESE) 3,416 ? 45.6°
